EW4258 Weather Reports


Display with metric or nautical units.
time (UTC)temp
F
wind
direction
speed
MPH
gust
MPH
rain 1hr
in
rain 24hr
in
rain mn
in
humidity
%
barometer
mb
20260510091112 60 157 1.0 2.0 0.00 0.00 0.00 56 1012.6
20260510090113 59 45 1.0 0.0 0.00 0.00 0.00 58 1013.0
20260510085112 58 247 1.0 0.0 0.00 0.00 0.00 60 1013.0
20260510084112 58 135 1.0 2.0 0.00 0.00 0.00 61 1013.2
20260510083112 56 247 1.0 2.0 0.00 0.00 0.00 62 1013.2
20260510082112 55 157 0.0 0.0 0.00 0.00 0.00 62 1013.4
20260510081112 54 202 0.0 0.0 0.00 0.00 0.00 63 1013.4
20260510080112 54 247 1.0 2.0 0.00 0.00 0.00 63 1013.6
20260510075112 54 247 0.0 0.0 0.00 0.00 0.00 66 1013.6
20260510073112 53 225 2.0 3.0 0.00 0.00 0.00 67 1013.8
20260510072113 52 247 0.0 2.0 0.00 0.00 0.00 67 1014.2
20260510071112 51 45 1.0 1.0 0.00 0.00 0.00 66 1014.2
20260510070112 51 270 0.0 1.0 0.00 0.00 0.00 67 1014.5
20260510065112 51 202 0.0 0.0 0.00 0.00 0.00 71 1014.5
20260510064111 49 202 0.0 0.0 0.00 0.00 0.00 72 1015.0
20260510063111 47 45 1.0 1.0 0.00 0.00 0.00 74 1015.0
20260510061112 45 225 0.0 0.0 0.00 0.00 0.00 75 1015.1
20260510060111 45 135 0.0 0.0 0.00 0.00 0.00 76 1014.8
20260510055112 44 135 0.0 1.0 0.00 0.00 0.00 75 1014.8
20260510053111 43 135 0.0 1.0 0.00 0.00 0.00 74 1015.4
20260510052111 42 157 1.0 1.0 0.00 0.00 0.00 73 1015.3
20260510051111 42 67 1.0 1.0 0.00 0.00 0.00 73 1015.3
20260510050111 41 157 0.0 0.0 0.00 0.00 0.00 73 1015.8
20260510044111 40 67 1.0 2.0 0.00 0.00 0.00 71 1015.8
20260510043111 40 157 0.0 0.0 0.00 0.00 0.00 70 1015.8
20260510042111 40 157 0.0 0.0 0.00 0.00 0.00 69 1015.8
20260510040111 39 225 1.0 0.0 0.00 0.00 0.00 69 1015.8
20260510034113 40 135 0.0 0.0 0.00 0.00 0.00 69 1015.9
20260510033114 40 112 0.0 0.0 0.00 0.00 0.00 69 1015.9
20260510031113 40 67 1.0 0.0 0.00 0.00 0.00 68 1016.0
20260510030114 40 45 1.0 2.0 0.00 0.00 0.00 69 1016.0
20260510025112 40 202 0.0 0.0 0.00 0.00 0.00 69 1016.0
20260510024112 40 112 0.0 0.0 0.00 0.00 0.00 69 1016.2
20260510023112 41 90 0.0 0.0 0.00 0.00 0.00 69 1016.2
20260510022112 41 45 0.0 0.0 0.00 0.00 0.00 69 1016.3
20260510021112 41 67 0.0 0.0 0.00 0.00 0.00 69 1016.3
20260510020112 41 67 0.0 1.0 0.00 0.00 0.00 69 1016.4
20260510015112 41 360 0.0 0.0 0.00 0.00 0.00 69 1016.4
20260510014113 41 157 0.0 0.0 0.00 0.00 0.00 68 1016.4
20260510013113 41 67 0.0 1.0 0.00 0.00 0.00 69 1016.4
20260510012112 42 90 0.0 0.0 0.00 0.00 0.00 68 1016.5
20260510011111 42 90 0.0 0.0 0.00 0.00 0.00 69 1016.5
20260510010111 42 45 0.0 0.0 0.00 0.00 0.00 70 1016.6
20260510005111 42 90 0.0 0.0 0.00 0.00 0.00 69 1016.6
20260510004111 42 135 0.0 0.0 0.00 0.00 0.00 69 1016.8
20260510003111 43 157 0.0 0.0 0.00 0.00 0.00 69 1016.8
20260510002111 43 67 0.0 0.0 0.00 0.00 0.00 69 1016.9
20260510001111 43 67 0.0 0.0 0.00 0.00 0.00 70 1016.9
20260510000111 44 90 0.0 0.0 0.00 0.00 0.00 70 1016.9
20260509233111 44 67 0.0 0.0 0.00 0.00 0.00 70 1017.2
20260509232111 44 22 0.0 0.0 0.00 0.00 0.00 69 1017.2
20260509230110 45 90 0.0 1.0 0.00 0.00 0.00 70 1017.3
20260509225110 45 135 0.0 0.0 0.00 0.00 0.00 70 1017.3
20260509224110 45 360 0.0 0.0 0.00 0.00 0.00 70 1017.3
20260509223112 46 45 0.0 0.0 0.00 0.00 0.00 70 1017.3
20260509222110 46 67 0.0 0.0 0.00 0.00 0.00 70 1017.2
20260509221110 46 157 0.0 0.0 0.00 0.00 0.00 70 1017.2
20260509220109 47 90 0.0 0.0 0.00 0.00 0.00 70 1017.2
20260509215117 47 157 0.0 0.0 0.00 0.00 0.00 70 1017.2
20260509213115 47 135 0.0 0.0 0.00 0.00 0.00 69 1017.1
20260509212115 48 67 0.0 1.0 0.00 0.00 0.00 70 1017.4
20260509211115 48 90 0.0 2.0 0.00 0.00 0.00 69 1017.4
20260509210116 48 22 0.0 0.0 0.00 0.00 0.00 70 1017.4
20260509205115 48 157 0.0 0.0 0.00 0.00 0.00 70 1017.4
20260509204116 49 292 1.0 0.0 0.00 0.00 0.00 70 1017.5
20260509202114 50 67 1.0 2.0 0.00 0.00 0.00 70 1017.7
20260509195114 51 202 0.0 0.0 0.00 0.00 0.00 71 1017.4
20260509194114 51 67 0.0 0.0 0.00 0.00 0.00 70 1017.2
20260509192114 52 112 0.0 0.0 0.00 0.00 0.00 70 1017.2
20260509191114 53 135 0.0 0.0 0.00 0.00 0.00 71 1017.2
20260509190114 53 337 0.0 0.0 0.00 0.00 0.00 70 1016.9
20260509185114 54 225 0.0 0.0 0.00 0.00 0.00 70 1016.9
20260509183113 55 202 0.0 0.0 0.00 0.00 0.00 69 1016.9
20260509182113 55 337 0.0 0.0 0.00 0.00 0.00 69 1016.9
20260509180113 57 202 0.0 0.0 0.00 0.00 0.00 65 1016.9
20260509175115 57 247 0.0 1.0 0.00 0.00 0.00 65 1016.9
20260509174113 58 202 1.0 0.0 0.00 0.00 0.00 64 1017.0
20260509173113 58 337 1.0 2.0 0.00 0.00 0.00 63 1017.0
20260509172113 58 337 1.0 2.0 0.00 0.00 0.00 64 1017.2
20260509171113 58 337 1.0 3.0 0.00 0.00 0.00 65 1017.2
20260509165112 59 247 2.0 0.0 0.00 0.00 0.00 68 1017.4
20260509164112 59 225 1.0 3.0 0.00 0.00 0.00 68 1017.7
20260509163112 58 270 1.0 2.0 0.00 0.00 0.00 68 1017.7
20260509162112 57 135 1.0 0.0 0.00 0.00 0.00 68 1018.0
20260509161112 56 180 0.0 0.0 0.00 0.00 0.00 67 1018.0
20260509160112 56 337 1.0 2.0 0.00 0.00 0.00 66 1017.9
20260509153112 57 180 2.0 1.0 0.00 0.00 0.00 63 1017.8
20260509152112 57 67 3.0 3.0 0.00 0.00 0.00 63 1017.8
20260509150111 58 180 2.0 2.0 0.00 0.00 0.00 63 1017.1
20260509145112 59 292 2.0 4.0 0.00 0.00 0.00 60 1017.1
20260509144111 59 337 1.0 2.0 0.00 0.00 0.00 63 1016.4
20260509143111 60 292 1.0 0.0 0.00 0.00 0.00 63 1016.4
20260509142111 61 67 1.0 3.0 0.00 0.00 0.00 59 1016.4
20260509141111 62 90 1.0 0.0 0.00 0.00 0.00 52 1016.4
20260509140111 62 112 2.0 2.0 0.00 0.00 0.00 52 1016.3
20260509135111 64 225 4.0 6.0 0.00 0.00 0.00 49 1016.3
20260509134112 66 247 3.0 3.0 0.00 0.00 0.00 43 1015.6
20260509133111 67 315 3.0 4.0 0.00 0.00 0.00 41 1015.6
20260509132111 67 360 3.0 6.0 0.00 0.00 0.00 41 1015.6
20260509131111 68 292 3.0 5.0 0.00 0.00 0.00 40 1015.6
20260509130111 69 180 2.0 2.0 0.00 0.00 0.00 40 1015.8
20260509125110 69 337 2.0 1.0 0.00 0.00 0.00 40 1015.8
20260509124110 69 270 3.0 4.0 0.00 0.00 0.00 39 1015.7
20260509123115 69 315 3.0 6.0 0.00 0.00 0.00 39 1015.7
20260509122115 70 270 3.0 2.0 0.00 0.00 0.00 38 1016.1
20260509121115 70 22 3.0 4.0 0.00 0.00 0.00 38 1016.1
20260509115115 69 337 2.0 3.0 0.00 0.00 0.00 38 1016.1
20260509114115 70 315 3.0 4.0 0.00 0.00 0.00 38 1016.4
20260509113115 70 315 3.0 2.0 0.00 0.00 0.00 38 1016.4
20260509112115 71 292 3.0 2.0 0.00 0.00 0.00 40 1016.6
20260509111115 70 135 3.0 7.0 0.00 0.00 0.00 39 1016.6
20260509110115 71 360 3.0 4.0 0.00 0.00 0.00 41 1016.9
20260509105115 70 157 1.0 3.0 0.00 0.00 0.00 41 1016.9
20260509104115 70 45 3.0 3.0 0.00 0.00 0.00 42 1017.1
20260509103115 69 135 2.0 2.0 0.00 0.00 0.00 45 1017.1
20260509102116 68 225 2.0 1.0 0.00 0.00 0.00 45 1017.1
20260509101114 67 202 2.0 1.0 0.00 0.00 0.00 44 1017.1
20260509100114 66 247 1.0 2.0 0.00 0.00 0.00 45 1017.5
20260509094114 65 22 2.0 1.0 0.00 0.00 0.00 47 1017.8
20260509092114 64 270 1.0 1.0 0.00 0.00 0.00 49 1017.9